Location: Winthrop
(48.4780°N, 120.1850°W)
Time: 00:38:22
(UTC-08:00)

Explorer 7 - Pass Details

Date: 02 February 2023
Orbit: 472 x 640 km, 50.3° (Epoch: 10 December)

Event Time Altitude Azimuth Distance (km) Brightness Sun altitude
Rises 17:51:26 0° 289° (WNW) 2,862 11.5 -8.7°
Reaches altitude 10° 17:53:47 10° 282° (WNW) 1,983 10.8 -9.0°
Maximum altitude 17:58:05 42° 212° (SSW) 915 8.4 -9.7°
Drops below altitude 10° 18:02:32 10° 142° (SE) 2,046 9.5 -10.4°
Sets 18:04:59 0° 136° (SE) 2,964 10.2 -10.8°
